�������l�o���
Date,Time,MP-1(��Sv/h),MP-2(��Sv/h),MP-3(��Sv/h),MP-4(��Sv/h),MP-5(��Sv/h),MP-6(��Sv/h),MP-7(��Sv/h),����,����(m/s),���J
2019/01/29,00:00,0.215,0.194,0.317,0.295,0.278,0.158,0.095,�k�k��,4.3,��
2019/01/29,00:10,0.213,0.194,0.318,0.296,0.277,0.158,0.096,�k��,4.4,��
2019/01/29,00:20,0.214,0.194,0.318,0.295,0.277,0.157,0.096,���k��,6.4,��
2019/01/29,00:30,0.214,0.194,0.316,0.297,0.278,0.157,0.095,�k��,6.8,��
2019/01/29,00:40,0.213,0.194,0.316,0.295,0.277,0.157,0.095,�k��,5.6,��
2019/01/29,00:50,0.213,0.194,0.316,0.296,0.275,0.158,0.096,�k,5.9,��
2019/01/29,01:00,0.214,0.194,0.317,0.295,0.278,0.158,0.096,�k�k��,6.5,��
2019/01/29,01:10,0.215,0.194,0.318,0.296,0.277,0.159,0.095,�k�k��,3.0,��
2019/01/29,01:20,0.214,0.194,0.315,0.296,0.278,0.157,0.095,�k�k��,2.0,��
2019/01/29,01:30,0.215,0.195,0.317,0.295,0.277,0.158,0.096,�k��,5.4,��
2019/01/29,01:40,0.214,0.194,0.316,0.295,0.276,0.158,0.096,�k��,8.4,��
2019/01/29,01:50,0.214,0.194,0.317,0.296,0.277,0.158,0.096,�k��,7.5,��
2019/01/29,02:00,0.213,0.194,0.319,0.296,0.275,0.157,0.096,���k��,10.3,��
2019/01/29,02:10,0.213,0.195,0.317,0.296,0.278,0.158,0.096,���k��,9.0,��
2019/01/29,02:20,0.215,0.195,0.318,0.295,0.277,0.157,0.095,���k��,8.1,��
2019/01/29,02:30,0.214,0.195,0.319,0.295,0.279,0.158,0.095,���k��,7.3,��
2019/01/29,02:40,0.215,0.194,0.318,0.295,0.279,0.158,0.096,���k��,8.4,��
2019/01/29,02:50,0.214,0.194,0.318,0.296,0.278,0.158,0.095,�k��,8.6,��
2019/01/29,03:00,0.214,0.194,0.318,0.296,0.279,0.159,0.096,�k��,8.4,��
2019/01/29,03:10,0.215,0.195,0.317,0.296,0.279,0.158,0.095,�k��,6.4,��
2019/01/29,03:20,0.214,0.195,0.317,0.296,0.277,0.158,0.096,���k��,6.7,��
2019/01/29,03:30,0.215,0.195,0.317,0.297,0.277,0.158,0.095,�k��,6.7,��
2019/01/29,03:40,0.214,0.195,0.319,0.297,0.278,0.159,0.095,���k��,6.3,��
2019/01/29,03:50,0.215,0.194,0.317,0.295,0.278,0.158,0.096,�k��,7.0,��
2019/01/29,04:00,0.215,0.196,0.318,0.295,0.278,0.158,0.096,�k��,7.1,��
2019/01/29,04:10,0.214,0.195,0.317,0.295,0.278,0.158,0.095,�k��,8.1,��
2019/01/29,04:20,0.215,0.195,0.318,0.296,0.278,0.159,0.096,�k��,10.3,��
2019/01/29,04:30,0.215,0.195,0.319,0.296,0.277,0.158,0.096,���k��,11.5,��
2019/01/29,04:40,0.215,0.195,0.318,0.297,0.278,0.158,0.095,��,11.7,��
2019/01/29,04:50,0.214,0.195,0.318,0.296,0.277,0.158,0.095,���k��,13.4,��
2019/01/29,05:00,0.215,0.195,0.318,0.296,0.277,0.159,0.095,��,12.2,��
2019/01/29,05:10,0.215,0.194,0.319,0.295,0.278,0.159,0.096,���k��,9.5,��
2019/01/29,05:20,0.214,0.194,0.319,0.297,0.278,0.158,0.096,���k��,7.8,��
2019/01/29,05:30,0.214,0.195,0.319,0.297,0.277,0.159,0.096,���k��,7.1,��
2019/01/29,05:40,0.214,0.195,0.318,0.297,0.278,0.157,0.095,��,4.8,��
2019/01/29,05:50,0.215,0.196,0.318,0.297,0.277,0.159,0.096,���k��,7.4,��
2019/01/29,06:00,0.215,0.195,0.318,0.297,0.278,0.159,0.096,���k��,6.5,��
2019/01/29,06:10,0.215,0.195,0.317,0.296,0.277,0.159,0.095,��,5.0,��
2019/01/29,06:20,0.214,0.194,0.317,0.296,0.277,0.158,0.096,���k��,10.1,��
2019/01/29,06:30,0.215,0.194,0.318,0.296,0.277,0.159,0.096,���k��,11.2,��
2019/01/29,06:40,0.214,0.194,0.319,0.297,0.277,0.159,0.096,���k��,10.1,��
2019/01/29,06:50,0.214,0.194,0.318,0.298,0.278,0.158,0.095,���k��,9.3,��
2019/01/29,07:00,0.214,0.196,0.318,0.296,0.279,0.158,0.096,�k�k��,6.3,��
2019/01/29,07:10,0.214,0.195,0.319,0.296,0.279,0.159,0.096,�k,4.5,��
2019/01/29,07:20,0.215,0.195,0.318,0.297,0.278,0.158,0.095,�k�k��,5.8,��
2019/01/29,07:30,0.215,0.195,0.318,0.296,0.278,0.158,0.095,�k��,3.9,��
2019/01/29,07:40,0.214,0.194,0.319,0.296,0.278,0.157,0.096,�k��,2.8,��
2019/01/29,07:50,0.215,0.195,0.317,0.296,0.278,0.158,0.095,�k�k��,1.1,��
2019/01/29,08:00,0.215,0.195,0.316,0.294,0.278,0.157,0.096,���k��,0.9,��
2019/01/29,08:10,0.215,0.194,0.317,0.295,0.278,0.159,0.096,���k��,1.2,��
2019/01/29,08:20,0.215,0.195,0.317,0.295,0.277,0.158,0.094,�k��,5.3,��
2019/01/29,08:30,0.214,0.196,0.317,0.296,0.277,0.158,0.096,���k��,6.4,��
2019/01/29,08:40,0.213,0.195,0.318,0.296,0.276,0.158,0.095,���k��,7.3,��
2019/01/29,08:50,0.214,0.195,0.317,0.295,0.278,0.158,0.095,���k��,5.5,��
2019/01/29,09:00,0.215,0.195,0.318,0.296,0.276,0.159,0.095,���k��,9.6,��
2019/01/29,09:10,0.213,0.194,0.318,0.295,0.277,0.158,0.095,���k��,8.2,��
2019/01/29,09:20,0.215,0.195,0.318,0.294,0.278,0.159,0.095,���k��,7.8,��
2019/01/29,09:30,0.215,0.195,0.319,0.297,0.277,0.158,0.095,���k��,6.6,��
2019/01/29,09:40,0.215,0.194,0.318,0.296,0.278,0.158,0.095,���k��,8.8,��
2019/01/29,09:50,0.215,0.194,0.318,0.296,0.277,0.158,0.095,���k��,7.1,��
2019/01/29,10:00,0.215,0.195,0.317,0.295,0.278,0.158,0.095,���k��,5.9,��
2019/01/29,10:10,0.215,0.194,0.319,0.296,0.278,0.159,0.095,�k��,9.2,��
2019/01/29,10:20,0.214,0.195,0.319,0.295,0.277,0.160,0.095,�k��,8.5,��
2019/01/29,10:30,0.212,0.194,0.317,0.293,0.277,0.158,0.096,���k��,6.5,��
2019/01/29,10:40,0.214,0.195,0.319,0.295,0.277,0.158,0.096,���k��,4.9,��
2019/01/29,10:50,0.214,0.194,0.319,0.296,0.279,0.158,0.096,�k��,6.5,��
2019/01/29,11:00,0.209,0.195,0.317,0.294,0.279,0.158,0.095,�k��,5.1,��
2019/01/29,11:10,0.208,0.195,0.316,0.296,0.276,0.159,0.095,�k��,7.5,��
2019/01/29,11:20,0.211,0.194,0.319,0.296,0.280,0.158,0.096,���k��,4.8,��
2019/01/29,11:30,0.212,0.195,0.318,0.295,0.279,0.158,0.096,�k��,10.1,��
2019/01/29,11:40,0.215,0.194,0.316,0.295,0.278,0.158,0.095,�k��,12.9,��
2019/01/29,11:50,0.214,0.193,0.317,0.295,0.277,0.159,0.096,�k��,12.0,��
2019/01/29,12:00,0.213,0.195,0.319,0.296,0.278,0.158,0.095,���k��,8.4,��
2019/01/29,12:10,0.214,0.195,0.317,0.298,0.278,0.158,0.095,�k��,10.3,��
2019/01/29,12:20,0.213,0.194,0.318,0.295,0.279,0.159,0.095,�k��,10.6,��
2019/01/29,12:30,0.213,0.194,0.317,0.296,0.277,0.159,0.095,���k��,16.4,��
2019/01/29,12:40,0.214,0.192,0.317,0.297,0.277,0.157,0.095,�k��,18.1,��
2019/01/29,12:50,0.213,0.194,0.317,0.295,0.277,0.158,0.094,�k��,14.2,��
2019/01/29,13:00,0.213,0.194,0.317,0.296,0.276,0.158,0.095,���k��,12.0,��
2019/01/29,13:10,0.214,0.193,0.318,0.295,0.277,0.158,0.095,���k��,14.8,��
2019/01/29,13:20,0.213,0.195,0.317,0.294,0.279,0.158,0.096,�k��,18.0,��
2019/01/29,13:30,0.213,0.193,0.318,0.295,0.279,0.159,0.095,�k��,12.3,��
2019/01/29,13:40,0.213,0.194,0.319,0.295,0.278,0.158,0.095,�k��,16.9,��
2019/01/29,13:50,0.214,0.194,0.317,0.296,0.279,0.158,0.095,���k��,12.8,��
2019/01/29,14:00,0.215,0.194,0.319,0.296,0.279,0.158,0.094,�k��,12.6,��
2019/01/29,14:10,0.214,0.195,0.319,0.295,0.278,0.158,0.095,���k��,11.5,��
2019/01/29,14:20,0.214,0.195,0.320,0.296,0.279,0.159,0.095,�k��,13.4,��
2019/01/29,14:30,0.215,0.194,0.318,0.296,0.280,0.159,0.096,�k��,9.8,��
2019/01/29,14:40,0.215,0.196,0.317,0.296,0.280,0.158,0.095,�k��,10.1,��
2019/01/29,14:50,0.214,0.195,0.319,0.297,0.280,0.158,0.096,�k��,9.0,��
2019/01/29,15:00,0.215,0.195,0.321,0.297,0.279,0.158,0.096,�k��,11.7,��
2019/01/29,15:10,0.216,0.195,0.319,0.297,0.281,0.159,0.096,�k�k��,12.0,��
2019/01/29,15:20,0.215,0.196,0.319,0.297,0.281,0.159,0.096,�k��,10.6,��
2019/01/29,15:30,0.216,0.195,0.318,0.297,0.280,0.158,0.095,�k��,7.7,��
2019/01/29,15:40,0.215,0.195,0.319,0.298,0.280,0.160,0.095,�k�k��,9.5,��
2019/01/29,15:50,0.214,0.195,0.320,0.298,0.279,0.158,0.096,�k��,8.9,��
2019/01/29,16:00,0.215,0.197,0.318,0.297,0.280,0.159,0.096,�k�k��,7.9,��
2019/01/29,16:10,0.214,0.195,0.318,0.297,0.278,0.157,0.096,�k��,5.5,��
2019/01/29,16:20,0.215,0.195,0.318,0.296,0.279,0.157,0.096,�k�k��,6.1,��
2019/01/29,16:30,0.214,0.195,0.319,0.298,0.280,0.160,0.096,�k��,5.1,��
2019/01/29,16:40,0.215,0.196,0.320,0.296,0.278,0.158,0.095,�k�k��,5.5,��
2019/01/29,16:50,0.215,0.196,0.318,0.297,0.279,0.158,0.096,�k��,6.3,��
2019/01/29,17:00,0.215,0.195,0.318,0.297,0.279,0.157,0.096,�k�k��,6.3,��
2019/01/29,17:10,0.216,0.195,0.318,0.298,0.278,0.158,0.096,�k��,5.8,��
2019/01/29,17:20,0.215,0.196,0.319,0.297,0.279,0.159,0.096,�k�k��,5.2,��
2019/01/29,17:30,0.215,0.196,0.320,0.296,0.279,0.159,0.095,�k�k��,4.0,��
2019/01/29,17:40,0.217,0.196,0.318,0.297,0.279,0.159,0.096,�k��,5.5,��
2019/01/29,17:50,0.215,0.194,0.318,0.296,0.279,0.158,0.096,�k��,8.1,��
2019/01/29,18:00,0.214,0.194,0.319,0.295,0.279,0.157,0.095,�k��,8.4,��
2019/01/29,18:10,0.215,0.196,0.319,0.296,0.277,0.158,0.095,�k�k��,8.7,��
2019/01/29,18:20,0.217,0.195,0.318,0.298,0.279,0.159,0.095,�k�k��,7.3,��
2019/01/29,18:30,0.216,0.195,0.318,0.297,0.279,0.158,0.096,�k�k��,7.5,��
2019/01/29,18:40,0.216,0.195,0.319,0.296,0.280,0.158,0.096,�k�k��,6.8,��
2019/01/29,18:50,0.215,0.196,0.320,0.297,0.278,0.159,0.095,�k�k��,6.1,��
2019/01/29,19:00,0.215,0.196,0.318,0.297,0.279,0.157,0.096,�k��,6.4,��
2019/01/29,19:10,0.216,0.196,0.319,0.297,0.278,0.159,0.096,�k�k��,5.3,��
2019/01/29,19:20,0.216,0.195,0.318,0.296,0.277,0.159,0.096,�k�k��,5.8,��
2019/01/29,19:30,0.215,0.195,0.318,0.295,0.279,0.158,0.096,�k�k��,4.6,��
2019/01/29,19:40,0.216,0.195,0.319,0.296,0.277,0.159,0.096,�k��,2.9,��
2019/01/29,19:50,0.216,0.196,0.319,0.297,0.278,0.159,0.096,�k�k��,3.4,��
2019/01/29,20:00,0.217,0.196,0.319,0.298,0.278,0.158,0.096,�k��,2.0,��
2019/01/29,20:10,0.215,0.194,0.319,0.298,0.279,0.159,0.096,���k��,0.8,��
2019/01/29,20:20,0.216,0.195,0.318,0.297,0.278,0.158,0.096,���쐼,1.3,��
2019/01/29,20:30,0.214,0.196,0.320,0.297,0.278,0.159,0.096,���k��,4.2,��
2019/01/29,20:40,0.216,0.196,0.320,0.298,0.277,0.159,0.096,��,4.5,��
2019/01/29,20:50,0.216,0.196,0.317,0.298,0.279,0.159,0.096,���k��,4.3,��
2019/01/29,21:00,0.216,0.196,0.318,0.296,0.276,0.159,0.096,�k��,4.8,��
2019/01/29,21:10,0.214,0.195,0.319,0.297,0.277,0.159,0.097,�k��,4.6,��
2019/01/29,21:20,0.215,0.194,0.319,0.297,0.278,0.159,0.096,�k�k��,2.4,��
2019/01/29,21:30,0.215,0.196,0.320,0.296,0.277,0.158,0.096,�k�k��,1.3,��
2019/01/29,21:40,0.214,0.196,0.320,0.297,0.279,0.159,0.096,�k�k��,1.5,��
2019/01/29,21:50,0.216,0.196,0.320,0.298,0.276,0.159,0.096,�k�k��,1.3,��
2019/01/29,22:00,0.215,0.195,0.319,0.297,0.278,0.159,0.095,�k�k��,1.2,��
2019/01/29,22:10,0.215,0.195,0.320,0.298,0.278,0.159,0.096,�k��,1.7,��
2019/01/29,22:20,0.215,0.196,0.319,0.297,0.279,0.160,0.096,�k��,1.5,��
2019/01/29,22:30,0.215,0.196,0.319,0.297,0.280,0.158,0.096,-,CALM,��
2019/01/29,22:40,0.216,0.195,0.319,0.296,0.279,0.159,0.096,��,0.8,��
2019/01/29,22:50,0.216,0.196,0.320,0.298,0.279,0.158,0.096,��,2.7,��
2019/01/29,23:00,0.216,0.195,0.319,0.296,0.278,0.158,0.096,���k��,2.3,��
2019/01/29,23:10,0.215,0.196,0.320,0.297,0.277,0.158,0.097,�k��,1.3,��
2019/01/29,23:20,0.214,0.196,0.319,0.298,0.277,0.158,0.097,���k��,1.6,��
2019/01/29,23:30,0.214,0.195,0.319,0.296,0.278,0.158,0.097,��,2.2,��
2019/01/29,23:40,0.214,0.195,0.318,0.296,0.277,0.159,0.097,���k��,2.7,��
2019/01/29,23:50,0.215,0.196,0.318,0.298,0.277,0.159,0.096,�k��,2.6,��
